Location: Black Swamp Observatory
(41.3920°N, 84.1250°W)
Time: 19:15:30
(UTC-05:00)

Amateur Radio Satellites - All Passes

Search period start: 24 February 2017 18:45
Search period end: 25 February 2017 18:45
Location: Black Swamp Observatory, 41.3920°N, 84.1250°W

Satellite Date Start Highest point End Downlink Frequencies (MHz)
Time Altitude Azimuth
CUBESAT XI-V 24 Feb 18:47:32 18:50:31 17° 296° (WNW) 18:53:30 437.345
XW-2A 24 Feb 18:47:57 18:51:11 45° 74° (ENE) 18:54:29 145.665 - 145.685
CUTE-I 24 Feb 18:50:27 18:55:20 37° 263° (W) 19:00:17 437.470
STRAND 1 24 Feb 18:50:51 18:53:52 15° 91° (E) 18:56:52 437.568
NUDT-PHONESAT 24 Feb 18:55:12 18:58:15 23° 265° (W) 19:01:20 437.300
LilacSat-2 24 Feb 18:56:24 18:59:13 19° 266° (W) 19:02:02 437.200
NO-84 24 Feb 19:01:31 19:04:23 25° 332° (NNW) 19:07:29 435.350 FM
CUTE 1.7 + AOD 2 24 Feb 19:04:22 19:08:31 50° 73° (ENE) 19:12:40 437.475
STARS 24 Feb 19:04:49 19:07:21 15° 297° (WNW) 19:09:51 437.465
HO-68 24 Feb 19:11:59 19:19:09 78° 71° (ENE) 19:26:20 435.675
CUBEBUG 2 24 Feb 19:14:05 19:17:55 30° 69° (ENE) 19:21:53 437.445
AO-73 24 Feb 19:30:24 19:33:08 16° 64° (ENE) 19:35:53 145.935
Oscar 11 24 Feb 19:38:14 19:40:57 16° 65° (ENE) 19:43:40 .
YUBILEINY 24 Feb 19:49:14 19:50:58 11° 54° (NE) 19:52:42 435.215
UWE-3 24 Feb 19:52:45 19:57:01 48° 72° (ENE) 20:01:26 435.000/436.395/437.385
AAUSAT CUBESAT 2 24 Feb 19:55:01 19:59:06 60° 75° (ENE) 20:03:13 437.432
SEEDS 24 Feb 20:03:18 20:07:26 52° 260° (W) 20:11:35 437.485
ZACube-1 24 Feb 20:15:38 20:19:55 50° 73° (ENE) 20:24:20 437.345
STRAND 1 24 Feb 20:28:21 20:33:27 63° 288° (WNW) 20:38:32 437.568
NO-84 24 Feb 20:41:58 20:43:13 11° 354° (N) 20:44:29 435.350 FM
CUTE 1.7 + AOD 2 24 Feb 20:42:22 20:44:38 14° 269° (W) 20:46:52 437.475
CUBEBUG 2 24 Feb 20:50:48 20:54:30 26° 266° (W) 20:58:20 437.445
RS-15 24 Feb 20:52:34 21:03:08 33° 331° (NNW) 21:13:56 29.354- 29.394
HO-68 24 Feb 21:02:45 21:07:34 19° 269° (W) 21:12:25 435.675
AO-73 24 Feb 21:04:34 21:08:53 52° 261° (W) 21:13:21 145.935
Oscar 11 24 Feb 21:12:29 21:16:41 47° 261° (W) 21:20:55 .
UWE-3 24 Feb 21:30:58 21:33:45 16° 269° (W) 21:36:35 435.000/436.395/437.385
AAUSAT CUBESAT 2 24 Feb 21:33:47 21:34:56 11° 270° (W) 21:36:05 437.432
DELFI C3 24 Feb 21:34:35 21:38:33 83° 259° (W) 21:42:32 145.870
YUBILEINY 24 Feb 21:41:27 21:50:03 57° 77° (ENE) 21:58:32 435.215
UNISAT 6 24 Feb 21:51:41 21:55:17 21° 93° (E) 21:58:50 437.425
TIGRISAT 24 Feb 21:52:19 21:55:47 20° 93° (E) 21:59:13 435.000
ZACube-1 24 Feb 21:53:51 21:56:30 15° 270° (W) 21:59:11 437.345
PRISM 24 Feb 21:54:27 21:58:25 50° 100° (E) 22:02:23 437.425
O/OREOS (USA 219) 24 Feb 22:03:21 22:04:54 12° 97° (E) 22:06:29 437.305
NO-84 24 Feb 22:20:13 22:22:20 14° 15° (NNE) 22:24:32 435.350 FM
LO-87 24 Feb 22:30:55 22:34:21 50° 74° (ENE) 22:37:48 145.935 - 145.965
FO-29 24 Feb 22:52:41 23:00:02 47° 97° (E) 23:06:41 435.910
SO-50 24 Feb 22:52:59 22:57:40 77° 121° (ESE) 23:02:18 436.795
ESTCUBE 1 24 Feb 23:04:17 23:08:45 66° 75° (ENE) 23:13:14 437.505/2401.250
50 SAT 24 Feb 23:04:50 23:06:01 11° 65° (ENE) 23:07:11 437.505
RS-15 24 Feb 23:11:45 23:21:06 24° 6° (N) 23:30:23 29.354- 29.394
POLYITAN 1 24 Feb 23:17:48 23:20:11 14° 91° (E) 23:22:32 437.675
NANOSAT C BR1 24 Feb 23:18:13 23:20:14 13° 91° (E) 23:22:14 145.865
QB50P2 24 Feb 23:20:24 23:23:10 17° 92° (E) 23:25:55 145.880/145.840
UNISAT 6 24 Feb 23:27:43 23:32:06 39° 290° (WNW) 23:36:26 437.425
DX 1 24 Feb 23:27:54 23:30:49 18° 65° (ENE) 23:33:45 434.975-435.025
TIGRISAT 24 Feb 23:28:11 23:32:37 42° 289° (WNW) 23:37:00 435.000
PRISM 24 Feb 23:31:09 23:33:17 14° 296° (WNW) 23:35:25 437.425
VELOX 1 24 Feb 23:32:47 23:36:56 43° 71° (ENE) 23:41:06 145.980
AIST 2D 24 Feb 23:33:54 23:37:11 33° 97° (E) 23:40:25 435.315
YUBILEINY 24 Feb 23:39:02 23:46:18 31° 277° (W) 23:53:32 435.215
O/OREOS (USA 219) 24 Feb 23:39:15 23:43:41 65° 294° (WNW) 23:48:10 437.305
UKube-1 24 Feb 23:41:18 23:44:13 18° 65° (ENE) 23:47:07 .
SPROUT 24 Feb 23:45:38 23:49:42 47° 72° (ENE) 23:53:49 437.525
NO-84 24 Feb 23:57:03 00:00:55 39° 34° (NE) 00:05:01 435.350 FM
DUCHIFAT 1 25 Feb 00:24:31 00:28:48 67° 102° (ESE) 00:33:00 145.980
EO-79 25 Feb 00:34:36 00:38:55 78° 283° (WNW) 00:43:10 145.935-145.965
50 SAT 25 Feb 00:35:23 00:38:44 44° 260° (W) 00:42:06 437.505
SO-50 25 Feb 00:35:37 00:38:40 17° 320° (NW) 00:41:41 436.795
FO-29 25 Feb 00:37:56 00:44:46 37° 297° (WNW) 00:51:07 435.910
ESTCUBE 1 25 Feb 00:44:21 00:45:59 12° 270° (W) 00:47:36 437.505/2401.250
POLYITAN 1 25 Feb 00:52:04 00:56:14 49° 287° (WNW) 01:00:22 437.675
NANOSAT C BR1 25 Feb 00:52:05 00:56:16 54° 287° (WNW) 01:00:25 145.865
QB50P2 25 Feb 00:55:05 00:59:09 42° 288° (WNW) 01:03:11 145.880/145.840
DX 1 25 Feb 01:02:35 01:06:41 42° 261° (W) 01:10:49 434.975-435.025
ITUPSAT 1 25 Feb 01:07:33 01:09:20 12° 59° (ENE) 01:11:09 437.325
AIST 2D 25 Feb 01:08:05 01:10:06 15° 293° (WNW) 01:12:07 435.315
VELOX 1 25 Feb 01:10:45 01:13:35 17° 267° (W) 01:16:26 145.980
Gurwin Techsat 1B 25 Feb 01:13:27 01:15:39 12° 89° (E) 01:17:51 435.225
PCSat 25 Feb 01:13:39 01:18:44 38° 53° (NE) 01:23:46 145.827
BEESAT 25 Feb 01:13:46 01:16:13 14° 61° (ENE) 01:18:42 436.000
UKube-1 25 Feb 01:15:51 01:19:55 42° 261° (W) 01:24:01 .
SPROUT 25 Feb 01:23:28 01:25:53 15° 269° (W) 01:28:18 437.525
BUGSAT 1 25 Feb 01:23:57 01:28:12 76° 286° (WNW) 01:32:27 437.445
RS-15 25 Feb 01:26:32 01:38:10 43° 39° (NE) 01:49:24 29.354- 29.394
NO-84 25 Feb 01:34:48 01:38:37 34° 230° (SW) 01:42:35 435.350 FM
DUCHIFAT 1 25 Feb 02:02:18 02:03:53 12° 298° (WNW) 02:05:28 145.980
Oscar 19 25 Feb 02:09:59 02:15:09 79° 104° (ESE) 02:20:16 437.125/150
ITUPSAT 1 25 Feb 02:41:39 02:46:27 83° 255° (WSW) 02:51:18 437.325
ITAMSAT 1 25 Feb 02:44:01 02:47:12 16° 91° (E) 02:50:22 435.822/435.867
BEESAT 25 Feb 02:48:39 02:53:24 69° 258° (WSW) 02:58:12 436.000
Gurwin Techsat 1B 25 Feb 02:50:51 02:56:12 80° 285° (WNW) 03:01:31 435.225
PCSat 25 Feb 02:57:15 03:02:00 32° 251° (WSW) 03:06:43 145.827
MOZHAYETS 4 25 Feb 03:13:45 03:18:23 76° 75° (ENE) 03:23:03
RS-15 25 Feb 03:39:23 03:51:32 69° 245° (WSW) 04:03:08 29.354- 29.394
AO-7 25 Feb 03:46:11 03:54:07 46° 100° (E) 04:01:57 .
KKS-1 25 Feb 03:48:17 03:52:30 46° 72° (ENE) 03:56:45 437.445
Oscar 19 25 Feb 03:51:17 03:53:47 14° 300° (WNW) 03:56:16 437.125/150
CUBESAT XI-V 25 Feb 04:12:06 04:16:35 48° 72° (ENE) 04:21:04 437.345
ITAMSAT 1 25 Feb 04:21:54 04:27:04 62° 288° (WNW) 04:32:13 435.822/435.867
STARS 25 Feb 04:23:30 04:27:42 48° 72° (ENE) 04:31:56 437.465
Gurwin Techsat 1B 25 Feb 04:33:44 04:35:15 11° 303° (WNW) 04:36:46 435.225
AO-85 25 Feb 04:35:49 04:40:17 53° 118° (ESE) 04:44:27 145.980
MOZHAYETS 4 25 Feb 04:55:00 04:56:03 11° 271° (W) 04:57:06
M-CUBED/EXP-1 PRIME 25 Feb 04:59:38 05:02:55 73° 253° (WSW) 05:06:11 437.505
KKS-1 25 Feb 05:26:30 05:29:17 16° 268° (W) 05:32:06 437.445
CUTE-I 25 Feb 05:30:28 05:31:23 10° 88° (E) 05:32:18 437.470
AO-7 25 Feb 05:39:08 05:46:46 42° 299° (WNW) 05:54:20 .
SO-50 25 Feb 05:45:53 05:47:30 12° 35° (NE) 05:49:05 436.795
CUBESAT XI-V 25 Feb 05:51:12 05:54:12 17° 268° (W) 05:57:14 437.345
KAITUO 1B 25 Feb 05:51:33 05:52:55 12° 91° (E) 05:54:15 145.475/437.950
XW-2F 25 Feb 05:54:50 05:57:12 16° 92° (E) 05:59:33 145.980 - 146.000
RS-15 25 Feb 05:55:49 06:01:26 15° 266° (W) 06:07:00 29.354- 29.394
XW-2D 25 Feb 05:58:57 06:01:42 19° 93° (E) 06:04:25 145.860 - 145.880
BEESAT 3 25 Feb 05:59:25 06:02:24 21° 112° (ESE) 06:05:25 437.485
STARS 25 Feb 06:01:47 06:04:19 15° 268° (W) 06:06:51 437.465
XW-2B 25 Feb 06:03:50 06:06:46 21° 94° (E) 06:09:40 145.730 - 145.750
STRAND 1 25 Feb 06:06:26 06:10:27 24° 64° (ENE) 06:14:29 437.568
DOVE 4 25 Feb 06:07:40 06:11:53 31° 97° (E) 06:16:19 437.250
XW-2C 25 Feb 06:12:12 06:15:28 26° 96° (E) 06:18:42 145.795 - 145.815
AO-85 25 Feb 06:17:42 06:20:56 19° 315° (NW) 06:24:00 145.980
NUDT-PHONESAT 25 Feb 06:25:11 06:28:33 30° 96° (E) 06:31:53 437.300
LilacSat-2 25 Feb 06:28:23 06:32:05 43° 99° (E) 06:35:43 437.200
BEESAT 2 25 Feb 06:36:51 06:39:56 22° 112° (ESE) 06:43:03 435.950
HO-68 25 Feb 06:42:19 06:45:35 13° 88° (E) 06:48:50 435.675
CUTE-I 25 Feb 07:06:44 07:12:09 88° 105° (ESE) 07:17:32 437.470
KAITUO 1B 25 Feb 07:23:34 07:27:12 46° 286° (WNW) 07:30:47 145.475/437.950
SO-50 25 Feb 07:24:20 07:28:50 67° 55° (NE) 07:33:16 436.795
XW-2F 25 Feb 07:27:59 07:31:28 34° 289° (WNW) 07:34:55 145.980 - 146.000
XW-2D 25 Feb 07:32:35 07:35:56 29° 289° (WNW) 07:39:14 145.860 - 145.880
BEESAT 3 25 Feb 07:36:14 07:39:48 33° 310° (NW) 07:43:26 437.485
XW-2B 25 Feb 07:37:42 07:40:57 26° 290° (WNW) 07:44:09 145.730 - 145.750
XW-2A 25 Feb 07:42:23 07:45:45 49° 100° (E) 07:49:07 145.665 - 145.685
STRAND 1 25 Feb 07:44:28 07:49:20 44° 261° (W) 07:54:16 437.568
UWE-3 25 Feb 07:45:15 07:45:59 10° 88° (E) 07:46:43 435.000/436.395/437.385
DOVE 4 25 Feb 07:45:28 07:49:28 28° 291° (WNW) 07:53:39 437.250
XW-2C 25 Feb 07:46:36 07:49:32 21° 292° (WNW) 07:52:26 145.795 - 145.815
SEEDS 25 Feb 07:47:22 07:50:48 24° 95° (E) 07:54:12 437.485
ISS 25 Feb 07:57:49 08:00:45 30° 136° (SE) 08:03:41 437.550
NUDT-PHONESAT 25 Feb 07:59:39 08:02:16 18° 293° (WNW) 08:04:51 437.300
LilacSat-2 25 Feb 08:03:59 08:05:58 14° 295° (WNW) 08:07:58 437.200
O/OREOS (USA 219) 25 Feb 08:10:18 08:14:07 25° 58° (ENE) 08:17:56 437.305
BEESAT 2 25 Feb 08:13:55 08:17:31 33° 310° (NW) 08:21:11 435.950
Tancredo 1 25 Feb 08:23:45 08:26:57 57° 141° (SE) 08:30:10 437.200
CUTE 1.7 + AOD 2 25 Feb 08:24:40 08:28:54 80° 285° (WNW) 08:33:05 437.475
HO-68 25 Feb 08:27:06 08:34:18 82° 106° (ESE) 08:41:28 435.675
CUBEBUG 2 25 Feb 08:40:22 08:45:08 67° 101° (ESE) 08:49:49 437.445
PRISM 25 Feb 08:43:42 08:47:25 35° 71° (ENE) 08:51:09 437.425
CUTE-I 25 Feb 08:48:55 08:51:25 13° 302° (WNW) 08:53:55 437.470
UNISAT 6 25 Feb 08:50:51 08:54:02 19° 65° (ENE) 08:57:18 437.425
TIGRISAT 25 Feb 08:51:22 08:54:25 18° 64° (ENE) 08:57:32 435.000
AO-73 25 Feb 08:52:41 08:56:41 30° 95° (E) 09:00:36 145.935
YUBILEINY 25 Feb 08:53:22 08:55:36 11° 72° (ENE) 08:57:49 435.215
Oscar 11 25 Feb 08:59:43 09:03:32 30° 96° (E) 09:07:18 .
FO-29 25 Feb 09:04:52 09:10:26 24° 58° (ENE) 09:16:18 435.910
SO-50 25 Feb 09:06:39 09:08:42 13° 252° (WSW) 09:10:45 436.795
AAUSAT CUBESAT 2 25 Feb 09:12:16 09:16:21 71° 285° (WNW) 09:20:26 437.432
DELFI C3 25 Feb 09:13:35 09:15:05 12° 91° (E) 09:16:34 145.870
XW-2A 25 Feb 09:17:43 09:18:05 10° 295° (WNW) 09:18:26 145.665 - 145.685
UWE-3 25 Feb 09:18:17 09:22:59 78° 284° (WNW) 09:27:35 435.000/436.395/437.385
SEEDS 25 Feb 09:22:55 09:26:27 27° 291° (WNW) 09:29:57 437.485
ISS 25 Feb 09:34:05 09:37:09 35° 333° (NNW) 09:40:14 437.550
ZACube-1 25 Feb 09:39:49 09:44:24 77° 284° (WNW) 09:48:52 437.345
O/OREOS (USA 219) 25 Feb 09:49:26 09:53:33 33° 255° (WSW) 09:57:39 437.305
Tancredo 1 25 Feb 10:00:42 10:03:26 24° 338° (NNW) 10:06:10 437.200
AIST 2D 25 Feb 10:09:42 10:11:33 14° 66° (ENE) 10:13:25 435.315
POLYITAN 1 25 Feb 10:11:34 10:13:06 12° 62° (ENE) 10:14:38 437.675
NANOSAT C BR1 25 Feb 10:11:54 10:12:45 11° 61° (ENE) 10:13:37 145.865
QB50P2 25 Feb 10:13:56 10:16:00 13° 63° (ENE) 10:18:04 145.880/145.840
HO-68 25 Feb 10:16:14 10:21:12 21° 304° (NW) 10:26:10 435.675
CUBEBUG 2 25 Feb 10:18:38 10:21:09 14° 298° (WNW) 10:23:40 437.445
PRISM 25 Feb 10:20:00 10:22:48 18° 266° (W) 10:25:38 437.425
UNISAT 6 25 Feb 10:26:07 10:30:24 43° 262° (W) 10:34:48 437.425
TIGRISAT 25 Feb 10:26:24 10:30:43 46° 261° (W) 10:35:10 435.000
AO-73 25 Feb 10:29:00 10:32:47 26° 292° (WNW) 10:36:30 145.935
Oscar 11 25 Feb 10:36:02 10:39:31 24° 292° (WNW) 10:42:59 .
YUBILEINY 25 Feb 10:41:51 10:50:33 66° 92° (E) 10:59:14 435.215
DELFI C3 25 Feb 10:46:22 10:50:09 49° 286° (WNW) 10:53:56 145.870
FO-29 25 Feb 10:47:29 10:54:34 76° 258° (WSW) 11:02:22 435.910
ESTCUBE 1 25 Feb 10:58:17 11:00:32 14° 91° (E) 11:02:45 437.505/2401.250
ISS 25 Feb 11:12:21 11:14:20 15° 352° (N) 11:16:19 437.550
DUCHIFAT 1 25 Feb 11:16:04 11:20:05 47° 72° (ENE) 11:24:10 145.980
EO-79 25 Feb 11:26:34 11:30:47 76° 76° (ENE) 11:35:03 145.935-145.965
LO-87 25 Feb 11:31:02 11:34:36 65° 101° (E) 11:38:12 145.935 - 145.965
Tancredo 1 25 Feb 11:38:51 11:40:35 14° 358° (N) 11:42:19 437.200
AIST 2D 25 Feb 11:41:09 11:44:27 36° 262° (W) 11:47:47 435.315
NANOSAT C BR1 25 Feb 11:43:38 11:47:49 75° 257° (WSW) 11:52:05 145.865
POLYITAN 1 25 Feb 11:44:05 11:48:18 67° 259° (WSW) 11:52:34 437.675
QB50P2 25 Feb 11:47:08 11:51:17 57° 259° (W) 11:55:30 145.880/145.840
Oscar 19 25 Feb 11:50:23 11:53:17 15° 61° (ENE) 11:56:10 437.125/150
50 SAT 25 Feb 12:01:58 12:03:01 11° 92° (E) 12:04:03 437.505
BUGSAT 1 25 Feb 12:13:19 12:17:21 73° 74° (ENE) 12:21:27 437.445
ESTCUBE 1 25 Feb 12:33:17 12:37:41 56° 287° (WNW) 12:42:02 437.505/2401.250
Gurwin Techsat 1B 25 Feb 12:33:48 12:37:47 22° 63° (ENE) 12:41:48 435.225
FO-29 25 Feb 12:37:39 12:40:53 13° 277° (W) 12:44:14 435.910
YUBILEINY 25 Feb 12:40:44 12:47:59 28° 293° (WNW) 12:55:17 435.215
ISS 25 Feb 12:49:32 12:51:47 17° 13° (NNE) 12:54:02 437.550
DX 1 25 Feb 12:50:32 12:54:24 30° 97° (E) 12:58:16 434.975-435.025
DUCHIFAT 1 25 Feb 12:53:44 12:56:01 14° 269° (W) 12:58:20 145.980
AO-7 25 Feb 12:57:41 13:01:55 15° 46° (NE) 13:06:10 .
VELOX 1 25 Feb 12:58:34 13:03:01 89° 100° (E) 13:07:27 145.980
UKube-1 25 Feb 13:02:43 13:06:30 29° 97° (E) 13:10:17 .
SPROUT 25 Feb 13:06:43 13:11:04 88° 275° (W) 13:15:21 437.525
AO-85 25 Feb 13:07:04 13:10:48 41° 52° (NE) 13:14:33 145.980
Tancredo 1 25 Feb 13:15:14 13:17:46 21° 18° (NNE) 13:20:19 437.200
Oscar 19 25 Feb 13:26:51 13:31:59 72° 257° (WSW) 13:37:08 437.125/150
50 SAT 25 Feb 13:33:03 13:36:20 40° 287° (WNW) 13:39:35 437.505
ITAMSAT 1 25 Feb 14:01:38 14:05:53 26° 65° (ENE) 14:10:10 435.822/435.867
Gurwin Techsat 1B 25 Feb 14:12:14 14:17:22 50° 260° (W) 14:22:33 435.225
BEESAT 3 25 Feb 14:15:55 14:18:33 17° 43° (NE) 14:21:10 437.485
ISS 25 Feb 14:25:33 14:28:48 56° 32° (NNE) 14:32:02 437.550
DX 1 25 Feb 14:26:57 14:30:27 24° 293° (WNW) 14:33:57 434.975-435.025
UKube-1 25 Feb 14:38:54 14:42:24 25° 293° (WNW) 14:45:54 .
ITUPSAT 1 25 Feb 14:42:37 14:46:33 25° 95° (E) 14:50:26 437.325
AO-7 25 Feb 14:44:52 14:53:04 63° 66° (ENE) 15:01:17 .
AO-85 25 Feb 14:48:21 14:50:51 16° 249° (WSW) 14:53:24 145.980
BEESAT 25 Feb 14:48:58 14:53:09 29° 96° (E) 14:57:17 436.000
Tancredo 1 25 Feb 14:51:08 14:54:22 80° 220° (SW) 14:57:34 437.200
BEESAT 2 25 Feb 14:54:13 14:56:59 17° 43° (NE) 14:59:45 435.950
MOZHAYETS 4 25 Feb 15:09:47 15:12:51 17° 92° (E) 15:15:53
ITAMSAT 1 25 Feb 15:40:16 15:45:08 40° 262° (W) 15:50:03 435.822/435.867
BEESAT 3 25 Feb 15:52:33 15:56:30 57° 241° (WSW) 16:00:24 437.485
RS-15 25 Feb 15:54:15 16:01:58 20° 97° (E) 16:09:49 29.354- 29.394
PCSat 25 Feb 15:55:37 16:00:23 33° 110° (ESE) 16:05:11 145.827
ISS 25 Feb 16:02:47 16:04:57 17° 228° (SW) 16:07:07 437.550
CUBESAT XI-V 25 Feb 16:10:41 16:12:16 12° 89° (E) 16:13:51 437.345
ITUPSAT 1 25 Feb 16:20:04 16:24:25 35° 291° (WNW) 16:28:44 437.325
BEESAT 25 Feb 16:26:43 16:30:51 30° 293° (WNW) 16:34:59 436.000
BEESAT 2 25 Feb 16:31:07 16:35:05 54° 241° (WSW) 16:39:00 435.950
AO-7 25 Feb 16:39:17 16:46:16 29° 265° (W) 16:53:19 .
XW-2D 25 Feb 16:42:29 16:43:10 10° 63° (ENE) 16:43:51 145.860 - 145.880
MOZHAYETS 4 25 Feb 16:45:50 16:50:14 46° 288° (WNW) 16:54:36
XW-2B 25 Feb 16:46:52 16:48:11 11° 64° (ENE) 16:49:30 145.730 - 145.750
CUTE-I 25 Feb 16:50:42 16:54:26 20° 62° (ENE) 16:58:12 437.470
NO-84 25 Feb 16:53:33 16:56:24 32° 130° (SE) 16:59:29 435.350 FM
XW-2C 25 Feb 16:54:37 16:56:44 14° 66° (ENE) 16:58:53 145.795 - 145.815
NUDT-PHONESAT 25 Feb 17:05:40 17:07:55 15° 66° (ENE) 17:10:10 437.300
LilacSat-2 25 Feb 17:10:35 17:13:40 23° 69° (ENE) 17:16:45 437.200
HO-68 25 Feb 17:13:23 17:15:59 12° 49° (NE) 17:18:36 435.675
DOVE 4 25 Feb 17:13:59 17:17:29 27° 69° (ENE) 17:21:02 437.250
KKS-1 25 Feb 17:15:08 17:19:38 88° 284° (WNW) 17:24:07 437.445
PCSat 25 Feb 17:38:41 17:43:41 37° 308° (NW) 17:48:44 145.827
CUBESAT XI-V 25 Feb 17:45:32 17:50:06 68° 285° (WNW) 17:54:39 437.345
STARS 25 Feb 17:48:36 17:53:03 86° 285° (WNW) 17:57:30 437.465
RS-15 25 Feb 18:00:30 18:12:24 81° 119° (ESE) 18:24:48 29.354- 29.394
KAITUO 1B 25 Feb 18:03:02 18:06:50 77° 75° (ENE) 18:10:40 145.475/437.950
XW-2F 25 Feb 18:08:10 18:12:00 76° 258° (WSW) 18:15:52 145.980 - 146.000
M-CUBED/EXP-1 PRIME 25 Feb 18:11:08 18:14:55 75° 107° (ESE) 18:19:01 437.505
XW-2D 25 Feb 18:13:01 18:16:50 62° 260° (W) 18:20:40 145.860 - 145.880
XW-2A 25 Feb 18:14:44 18:17:00 17° 68° (ENE) 18:19:17 145.665 - 145.685
XW-2B 25 Feb 18:18:07 18:21:53 55° 260° (W) 18:25:42 145.730 - 145.750
XW-2C 25 Feb 18:26:56 18:30:35 42° 262° (W) 18:34:16 145.795 - 145.815
CUTE-I 25 Feb 18:28:48 18:34:01 58° 259° (W) 18:39:19 437.470
NO-84 25 Feb 18:31:08 18:34:04 28° 330° (NNW) 18:37:15 435.350 FM
NUDT-PHONESAT 25 Feb 18:38:01 18:41:32 37° 262° (W) 18:45:04 437.300
SEEDS 25 Feb 18:39:32 18:42:26 18° 66° (ENE) 18:45:20 437.485
